星链-2505 (STARLINK-2505 )

导读

STARLINK-2505是美国于2021年5月4日发射的星链卫星,属于SpaceX星链星座的组成部分,旨在为全球提供低延迟、高速率的宽带互联网覆盖。星链系统通过构建低轨卫星星座,能服务偏远地区、地面网络无法覆盖区域,推动全球互联网接入普及,该卫星入轨后承担相关通信组网任务。

Basic Information
目录编号:
48411
目录名称:
STARLINK-2505
国际标识:
2021-038BL
轨道中心:
EARTH
卫星名称:
星链-2505
卫星全名:
星链-2505 (STARLINK-2505 )
卫星状态:
在轨 (已飞行1868 天)
发射日期:
2021-05-04 UTC
国别 :
美国 (US)
星等 :
--
Orbit Information
数据来源 国际轨道数据 AOE轨道数据
星历时间 2026-06-14T17:24:44+0800
20小时前
查看轨道信息
2026-06-15T07:00:00+0800
6小时前
查看轨道信息
半长轴 6848.853km 6848.89km
偏心率 0.0001102 0.0002175
轨道倾角 53.157° 53.152°
近地点辐角 99.373° 130.347°
升交点赤经 203.996° 201.379°
平近点角 260.740° 113.338°
近地点 469.961km 469.263km
远地点 471.471km 472.243km
周期 94.013分钟 94.013分钟
每日圈数 15.317081 15.316957
Detailed Information
固有亮度:
5
最大亮度:
2.5
卫星平台:
Starlink V1.0
覆盖范围:
全球
运营商:
太空探索技术公司
运营商所在国:
美国
制造商(研发单位):
太空探索技术公司
制造商所在国:
美国
使用方式:
暂无
Satellite Introduction
星链(Starlink)计划是由太空探索技术公司(SpaceX)提出的一个巨型低轨卫星互联网星座项目,计划在2019年至2024年间在太空搭建由约1.2万颗卫星组成的“星链”网络,其中1584颗将部署在地球上空550千米处的近地轨道,并从2020年开始工作。该卫星仍在工作。
2D Orbit Map
3D Orbit Map
Orbit Altitude Analysis Chart
Orbit Inclination Analysis Chart
Orbit Comprehensive Analysis Chart
View Comprehensive Chart